ヒル彗星

420P/Hill (1996)

English version
Home page
Updated on April 29, 2021

---------------------------------------------------------------------

・ プロフィール

・ 軌道要素

                    Epoch = 1996 Oct.  4.0 TT
     T = 1996 Sept.16.29547 TT        Peri. = 159.16042
     e = 0.4968608                    Node  = 174.31326 2000.0
     q = 2.7593400 AU                 Incl. =  14.45157
       a =  5.4842471 AU   n = 0.07674119   P =  12.84 years

・ 光度変化

        m1 = 10.5 + 5 logΔ + 10.0 log r

---------------------------------------------------------------------

軌道要素はCBET 4943に掲載されたものです。
光度グラフはComet for Windowsで作成したものです。

---------------------------------------------------------------------

Copyright(C) Seiichi Yoshida (comet@aerith.net). All rights reserved.